Temperature
-1 -1 -1 -2 -2 -2 -3 -2 -0 0 -1 -1 -2 -3 -3 -4 -4 -4 -3 -4 -4 -4 -3 -3 -3 -3 -3 -2 -2 -2 -2 -1 -1 -1 -1 -1 -1 -1 -0 -0 -0 -0 0 0
-2 -1 -2 -2 -2 -2 -3 -3 -3 -2 -2 -2 -3 -4 -4 -4 -4 -4 -4 -4 -4 -4 -4 -4 -3 -3 -3 -3 -3 -2 -2 -2 -2 -2 -2 -1 -1 -1 -1 -1 -1 -1 -0 -1
0 -2 -2 -0 -2 -3 -3 -4 -3 -2 -2 -3 -4 -4 -4 -5 -5 -5 -5 -5 -5 -4 -4 -4 -4 -4 -4 -3 -3 -3 -3 -2 -2 -2 -2 -2 -2 -2 -2 -2 -1 -1 -1 -1
-1 -1 0 1 -4 -3 -3 -4 -4 -4 -4 -4 -4 -5 -5 -5 -5 -5 -5 -5 -5 -5 -4 -4 -4 -4 -4 -4 -4 -3 -3 -3 -3 -3 -3 -2 -2 -2 -2 -2 -2 -2 -2 -2
-1 -0 0 -1 -4 -4 -4 -3 -4 -5 -5 -5 -6 -5 -5 -5 -5 -5 -5 -5 -5 -5 -5 -5 -4 -4 -4 -4 -4 -4 -4 -4 -3 -3 -3 -3 -3 -3 -3 -3 -3 -2 -2 -2
-2 -1 0 0 -4 -6 -4 -2 -3 -5 -5 -6 -6 -3 -3 -5 -5 -5 -6 -5 -5 -5 -5 -5 -5 -5 -5 -5 -5 -5 -4 -4 -4 -4 -4 -3 -3 -3 -3 -3 -3 -3 -3 -3
-2 -2 -1 -3 -6 -5 -2 -1 -4 -5 -6 -6 -6 -5 -6 -6 -6 -6 -6 -6 -6 -6 -6 -5 -5 -5 -5 -5 -5 -5 -5 -5 -4 -4 -4 -4 -4 -4 -4 -4 -4 -4 -4 -3
-3 -2 -1 -5 -6 -4 -3 -5 -5 -6 -6 -6 -6 -6 -6 -6 -6 -6 -6 -6 -6 -6 -6 -6 -6 -6 -6 -6 -6 -6 -5 -5 -5 -4 -4 -4 -4 -4 -4 -4 -4 -4 -4 -4
-3 -2 -4 -6 -6 -5 -6 -6 -6 -6 -6 -6 -7 -7 -7 -7 -6 -7 -7 -6 -6 -6 -6 -6 -6 -6 -6 -6 -6 -6 -6 -5 -5 -5 -5 -5 -5 -5 -5 -5 -5 -5 -5 -5
-6 -4 -6 -6 -6 -6 -6 -6 -6 -6 -6 -6 -7 -7 -7 -7 -7 -7 -7 -7 -7 -7 -7 -7 -6 -7 -7 -6 -6 -6 -6 -6 -6 -5 -5 -5 -5 -5 -6 -6 -6 -5 -5 -5
-6 -5 -6 -6 -6 -6 -6 -6 -6 -6 -6 -7 -7 -7 -7 -7 -7 -7 -7 -7 -7 -7 -7 -7 -7 -7 -7 -7 -7 -6 -6 -6 -6 -6 -6 -6 -6 -6 -6 -6 -6 -6 -6 -6
-4 -5 -5 -5 -5 -6 -6 -6 -6 -7 -7 -7 -7 -7 -7 -8 -8 -7 -7 -7 -7 -7 -7 -7 -7 -7 -7 -7 -7 -7 -7 -7 -7 -7 -7 -7 -7 -6 -6 -6 -6 -6 -6 -6
-6 -6 -6 -6 -6 -6 -6 -7 -7 -7 -7 -7 -7 -8 -8 -8 -8 -8 -8 -8 -8 -8 -8 -8 -7 -7 -7 -7 -7 -7 -7 -7 -7 -7 -7 -7 -7 -7 -7 -7 -7 -6 -6 -6
-6 -7 -7 -6 -6 -6 -7 -7 -7 -7 -7 -7 -8 -8 -8 -8 -8 -8 -8 -8 -8 -8 -8 -8 -8 -8 -8 -8 -8 -8 -8 -8 -8 -8 -8 -7 -7 -7 -7 -7 -7 -7 -7 -7
-7 -7 -7 -7 -7 -7 -7 -7 -7 -7 -8 -8 -8 -8 -8 -8 -8 -9 -9 -9 -9 -8 -8 -8 -8 -8 -8 -8 -8 -8 -8 -8 -8 -8 -8 -8 -8 -8 -8 -8 -8 -8 -7 -7
-7 -7 -7 -7 -7 -7 -8 -8 -8 -8 -8 -8 -8 -9 -9 -9 -9 -9 -9 -9 -9 -9 -9 -9 -9 -9 -9 -9 -8 -9 -9 -9 -9 -9 -9 -8 -8 -8 -8 -8 -8 -8 -8 -8
-8 -8 -8 -8 -8 -8 -8 -8 -8 -8 -8 -9 -9 -9 -9 -9 -9 -9 -9 -9 -9 -9 -9 -9 -9 -9 -9 -9 -9 -9 -9 -9 -9 -9 -9 -9 -9 -9 -9 -9 -9 -9 -8 -9
-7 -7 -7 -8 -8 -8 -8 -8 -8 -9 -9 -9 -9 -9 -9 -10 -10 -10 -10 -10 -10 -9 -10 -9 -9 -9 -9 -9 -9 -9 -9 -9 -9 -9 -9 -9 -9 -9 -9 -9 -9 -9 -9 -9
-7 -8 -8 -8 -8 -8 -9 -9 -9 -9 -9 -9 -9 -10 -10 -10 -10 -10 -10 -10 -10 -10 -10 -10 -10 -10 -10 -10 -10 -10 -10 -10 -10 -10 -10 -10 -10 -10 -10 -10 -9 -9 -9 -9
-8 -8 -8 -8 -8 -9 -9 -9 -9 -9 -9 -10 -10 -10 -10 -10 -10 -10 -10 -10 -10 -10 -10 -10 -10 -10 -10 -10 -10 -10 -10 -10 -10 -10 -10 -10 -10 -10 -10 -10 -10 -10 -10 -10
-8 -8 -8 -9 -9 -9 -9 -9 -9 -9 -10 -10 -10 -10 -10 -10 -10 -11 -10 -10 -10 -10 -10 -10 -10 -10 -10 -10 -10 -10 -10 -10 -10 -11 -11 -10 -10 -10 -10 -10 -10 -10 -10 -10
-8 -9 -9 -9 -9 -9 -9 -10 -10 -10 -10 -10 -10 -10 -10 -11 -11 -11 -11 -11 -11 -11 -11 -11 -11 -11 -11 -11 -11 -11 -11 -11 -11 -11 -11 -11 -11 -11 -11 -11 -11 -11 -11 -11
-9 -9 -9 -9 -10 -10 -10 -10 -10 -10 -10 -10 -11 -11 -11 -11 -11 -11 -11 -11 -11 -11 -11 -11 -11 -11 -11 -11 -11 -11 -11 -11 -11 -11 -11 -11 -11 -11 -11 -11 -11 -11 -11 -11
-9 -9 -10 -10 -10 -10 -10 -10 -10 -10 -11 -11 -11 -11 -11 -11 -11 -11 -11 -11 -11 -11 -11 -11 -11 -11 -11 -11 -11 -11 -11 -11 -11 -12 -12 -12 -12 -12 -12 -11 -11 -11 -11 -11
-10 -10 -10 -10 -10 -10 -11 -11 -11 -11 -11 -11 -11 -11 -11 -11 -11 -11 -11 -11 -11 -11 -11 -11 -11 -11 -11 -11 -12 -12 -12 -12 -12 -12 -12 -12 -12 -12 -12 -12 -12 -12 -11 -11
-10 -10 -10 -11 -11 -11 -11 -11 -11 -11 -11 -11 -11 -12 -12 -12 -12 -12 -12 -12 -12 -12 -12 -12 -12 -12 -12 -12 -12 -12 -12 -12 -12 -12 -12 -12 -12 -12 -12 -12 -12 -12 -12 -12
-10 -11 -11 -11 -11 -11 -11 -11 -12 -12 -12 -12 -12 -12 -12 -12 -12 -12 -12 -12 -12 -12 -12 -12 -12 -12 -12 -12 -12 -12 -12 -12 -12 -12 -12 -12 -12 -12 -12 -12 -12 -12 -12 -12
Wind_Speed
9 10 8 8 8 6 7 8 9 10 10 11 9 9 8 8 8 8 7 6 5 5 5 4 4 4 4 4 4 4 4 4 4 3 3 2 2 2 3 3 3 3 3 3
7 7 6 8 10 9 10 9 11 13 13 9 8 7 7 7 7 7 7 7 6 6 6 5 5 5 5 5 4 4 4 4 4 3 3 3 3 2 3 3 3 3 4 4
6 4 5 8 7 8 7 8 7 9 8 6 6 7 7 7 7 8 8 8 7 6 6 6 6 5 5 5 4 4 4 4 4 4 3 3 3 3 3 3 4 4 4 4
4 3 6 3 1 4 7 9 8 8 8 7 8 8 6 6 7 8 8 8 8 7 7 7 6 5 5 5 4 4 4 4 4 3 3 3 3 3 3 3 3 4 4 4
3 5 8 4 2 3 5 7 5 7 8 7 6 5 4 4 4 6 7 7 7 7 7 7 6 5 5 5 4 4 4 4 4 4 3 3 4 4 4 3 4 4 4 5
3 4 5 2 2 1 2 5 3 5 6 5 4 4 4 4 6 7 7 6 6 7 6 6 6 5 4 5 4 5 5 5 5 4 4 4 4 4 4 4 4 3 4 4
6 6 7 0 2 3 3 3 1 3 4 4 4 5 6 7 7 7 7 7 6 6 5 5 5 4 4 4 5 5 5 5 5 4 4 4 4 4 4 3 3 3 4 4
4 6 6 4 5 5 3 2 2 3 4 5 5 6 6 7 7 7 7 7 6 6 6 5 4 4 4 5 5 5 5 5 4 4 4 3 3 3 3 3 3 3 3 4
6 5 1 5 5 4 2 3 4 4 5 4 5 6 7 7 7 7 7 7 6 6 6 5 4 4 5 5 5 4 5 5 4 4 3 3 3 3 3 3 3 3 3 3
6 8 5 6 7 6 5 5 5 5 5 4 6 7 7 7 7 7 7 7 6 6 6 6 5 5 5 5 4 4 4 4 4 3 3 3 3 3 3 3 3 3 3 3
7 7 5 5 7 7 7 6 6 5 5 5 6 7 7 7 7 6 6 6 6 5 5 6 6 5 5 4 4 4 4 4 3 3 3 3 3 3 3 4 4 4 3 3
5 4 3 4 4 4 5 6 6 5 6 5 5 6 6 6 6 6 6 6 6 6 6 6 6 6 5 4 3 3 3 3 3 2 2 2 2 3 3 4 5 5 5 5
4 3 4 4 4 3 4 4 4 4 5 5 5 5 5 6 6 6 6 6 6 6 6 6 6 6 5 4 3 3 3 3 3 3 2 2 2 2 3 3 3 4 4 4
4 3 4 3 3 3 3 3 3 3 4 4 5 5 5 5 6 6 6 7 6 6 6 5 5 5 5 4 3 3 3 3 3 3 3 3 2 2 2 2 3 3 3 4
5 5 5 4 3 3 3 2 3 3 4 4 4 4 5 5 6 6 6 6 5 5 5 5 5 6 6 4 4 3 3 2 3 3 2 2 2 2 2 2 2 2 3 3
4 4 4 4 5 4 4 4 4 5 5 5 5 5 5 5 6 6 6 5 5 5 6 5 6 6 6 4 4 3 3 3 3 2 2 2 2 2 2 2 2 2 2 3
3 4 4 5 5 4 4 5 5 5 5 5 5 5 5 5 5 6 6 5 5 5 6 5 6 6 5 4 4 3 3 2 3 2 2 2 2 2 2 2 2 2 3 3
5 5 5 5 5 4 4 4 4 5 5 5 5 4 4 5 6 6 6 6 5 5 5 5 5 5 5 4 3 3 2 2 2 2 2 2 2 2 2 2 2 3 3 4
3 4 4 4 4 4 4 4 4 4 4 4 4 4 5 5 5 6 6 5 5 6 6 5 7 6 5 5 4 3 2 2 2 2 2 2 2 2 2 2 2 3 3 3
2 2 3 3 3 3 4 4 4 4 4 3 4 4 5 5 5 5 5 5 5 5 6 6 6 5 5 4 4 2 2 2 2 2 2 2 2 2 2 3 3 3 3 3
2 2 3 3 3 3 3 4 4 4 4 3 4 5 6 6 5 4 4 5 5 5 6 7 5 5 4 4 3 2 2 2 2 2 2 2 2 3 3 3 3 3 3 3
3 3 3 3 3 4 4 3 3 4 4 4 4 5 5 6 5 5 5 5 6 7 6 4 4 5 5 4 2 2 2 2 2 2 3 3 3 3 3 3 3 3 3 4
3 3 4 4 4 4 4 3 3 4 4 5 5 5 5 5 4 4 5 4 5 7 6 4 6 7 6 3 2 2 2 3 3 3 3 3 3 3 4 4 4 4 4 4
3 4 4 3 3 3 4 4 4 4 4 5 5 5 5 4 4 4 5 6 7 7 5 6 7 7 5 2 2 2 2 3 3 3 3 3 3 3 4 4 4 4 4 4
3 3 3 3 3 4 4 4 4 4 4 4 5 4 4 4 4 5 5 5 7 7 5 5 7 6 4 2 2 3 3 3 3 3 3 3 4 4 4 4 4 4 4 4
3 3 3 4 4 4 3 3 3 3 4 4 4 4 3 3 4 4 4 5 5 6 4 4 4 4 3 3 3 3 3 4 4 4 4 4 4 4 4 4 5 4 5 5
3 3 3 3 3 3 3 3 4 4 4 4 5 4 4 4 4 4 4 4 4 4 4 3 3 3 3 3 3 3 3 4 4 4 4 4 4 4 4 5 5 5 5 6
Wind_Direction
264 270 267 264 268 246 227 244 257 272 277 289 303 303 305 310 314 319 318 318 318 316 319 322 324 324 324 324 325 325 327 326 317 319 313 306 288 275 266 260 256 248 242 246
273 264 261 266 266 252 248 251 258 271 278 292 305 305 306 309 313 314 313 314 317 319 320 321 321 320 321 321 321 323 323 317 314 319 316 314 309 297 279 268 263 257 247 242
273 288 276 267 252 227 233 235 238 255 272 294 300 299 300 306 310 309 309 312 313 316 315 314 313 314 315 317 318 318 315 313 310 312 309 307 307 303 289 282 272 263 256 249
278 288 256 273 84 220 239 250 240 255 270 283 290 299 299 299 302 304 307 310 315 318 314 312 311 311 313 312 313 311 309 312 309 309 306 305 300 292 289 286 280 271 262 254
246 266 274 269 203 205 232 268 241 249 271 291 311 304 295 308 305 302 304 307 310 313 311 308 307 309 312 312 311 310 309 309 305 300 297 295 293 292 292 287 283 280 274 260
232 252 262 294 121 197 219 264 230 246 269 285 303 297 314 336 318 312 312 313 314 314 311 310 309 312 308 305 306 304 303 302 299 292 287 286 286 289 288 282 281 286 282 275
235 248 265 290 141 165 221 292 304 256 265 264 264 283 305 312 310 311 313 312 313 311 307 304 306 304 297 299 295 298 301 299 295 291 289 284 285 287 286 282 282 284 282 282
211 232 258 147 155 201 262 339 294 280 274 267 273 287 294 300 305 309 312 313 312 310 306 303 299 290 287 289 294 299 299 298 293 292 294 286 284 288 288 282 278 279 281 286
212 235 333 175 213 247 287 277 281 283 281 269 276 286 293 298 302 305 308 309 310 306 305 304 297 281 278 286 293 294 294 292 289 292 288 280 280 284 285 278 270 270 271 276
252 259 257 242 247 256 260 268 278 278 278 272 275 283 291 298 303 306 308 308 308 306 304 305 304 291 277 281 284 281 284 287 291 292 290 290 286 282 278 276 271 270 271 273
250 269 282 254 247 257 264 266 272 278 277 277 278 282 287 293 298 303 307 309 308 304 302 304 306 299 291 285 280 280 283 286 293 291 286 288 290 289 280 279 275 274 269 269
242 240 238 265 263 262 258 261 264 273 282 283 275 279 288 293 297 300 304 307 309 308 304 304 306 301 298 294 283 279 286 291 291 291 287 281 285 300 310 293 305 296 291 285
262 278 266 274 268 256 258 265 268 265 270 282 288 286 290 297 302 305 305 307 307 305 304 305 307 306 307 305 289 277 279 286 290 292 286 282 282 284 301 317 319 315 312 310
254 255 261 255 263 269 262 270 276 277 278 282 288 293 296 300 304 307 307 307 306 306 307 309 310 311 314 310 298 289 286 288 289 287 291 284 280 279 283 295 311 323 329 334
250 248 256 272 275 273 270 271 280 289 295 298 296 296 298 301 304 306 309 310 310 309 310 313 312 312 318 315 305 296 292 290 290 291 293 293 286 281 282 285 292 306 324 336
265 256 252 258 264 270 272 269 271 284 294 299 301 302 301 300 302 306 311 314 311 308 310 309 307 310 314 310 304 295 289 297 299 296 297 299 299 288 278 279 286 295 305 319
226 247 252 260 264 267 268 268 268 278 287 289 295 301 305 308 310 311 314 315 306 299 300 299 303 309 309 305 299 293 289 292 296 293 290 289 290 293 284 271 277 286 293 302
239 247 247 249 253 261 271 275 275 279 281 286 294 298 300 302 303 308 314 318 316 313 309 308 310 311 310 307 299 292 290 292 292 291 291 295 297 295 292 282 279 286 296 302
254 255 257 257 257 258 266 272 278 282 284 287 290 291 292 293 296 302 311 315 313 312 318 321 320 318 314 311 309 295 296 294 293 294 292 299 302 302 301 298 296 294 295 296
259 259 261 265 266 263 268 275 280 282 284 284 286 290 294 296 298 302 305 298 294 299 311 314 312 310 309 307 301 291 289 286 284 284 284 284 286 291 293 294 296 296 296 296
264 270 269 271 276 278 275 276 275 278 284 280 277 283 290 297 300 299 299 298 305 308 309 309 311 310 307 303 286 284 279 280 283 280 275 273 276 280 285 288 289 290 291 292
274 273 274 276 279 287 289 284 276 278 284 284 283 286 291 297 300 296 286 284 301 311 312 304 305 310 314 306 287 278 273 274 277 279 277 275 274 277 280 283 284 287 290 291
275 273 274 275 276 284 294 290 280 276 277 280 282 284 285 288 292 292 297 300 301 307 309 302 308 312 315 306 290 273 271 273 275 275 277 279 278 275 274 277 279 282 284 286
277 278 280 284 285 285 291 294 288 282 279 280 280 282 285 290 290 281 284 300 308 307 303 306 313 316 314 302 284 275 274 275 276 276 277 278 278 278 277 276 277 278 278 281
279 283 286 289 284 281 283 291 293 291 289 288 288 287 281 277 280 292 296 296 301 305 304 309 315 317 311 293 282 278 276 275 277 278 274 276 277 277 278 277 278 278 277 277
283 283 281 277 278 284 288 285 285 289 290 292 295 294 291 290 287 289 293 297 298 302 303 304 307 307 299 291 284 281 279 282 284 279 273 272 273 274 274 274 277 276 278 278
290 293 296 297 297 295 291 283 281 284 284 283 291 295 295 296 294 294 295 298 301 302 301 300 301 295 290 287 285 282 280 278 277 275 275 272 271 271 272 273 275 275 276 276
Height
1540 1538 1538 1537 1536 1537 1536 1530 1522 1514 1516 1513 1515 1515 1513 1511 1508 1505 1502 1501 1499 1497 1495 1494 1493 1492 1491 1490 1490 1490 1489 1489 1489 1489 1490 1490 1491 1492 1492 1492 1493 1493 1494 1495
1539 1536 1537 1535 1531 1532 1533 1531 1526 1521 1517 1515 1515 1514 1512 1510 1507 1505 1502 1500 1498 1496 1494 1492 1491 1490 1489 1488 1487 1487 1487 1487 1487 1487 1487 1488 1488 1488 1489 1489 1489 1490 1490 1491
1528 1534 1534 1523 1524 1528 1528 1526 1525 1519 1515 1515 1514 1512 1511 1509 1506 1504 1502 1500 1498 1496 1493 1492 1490 1489 1488 1486 1486 1485 1485 1485 1485 1485 1485 1485 1485 1485 1486 1486 1486 1486 1486 1487
1532 1532 1522 1516 1524 1524 1523 1521 1521 1518 1516 1515 1513 1511 1509 1507 1505 1503 1501 1498 1496 1494 1492 1491 1489 1487 1486 1485 1484 1483 1483 1483 1483 1483 1482 1482 1483 1483 1483 1483 1483 1483 1483 1483
1532 1524 1515 1517 1523 1524 1523 1517 1516 1516 1514 1513 1511 1509 1506 1505 1503 1502 1500 1497 1495 1493 1491 1489 1487 1486 1484 1483 1482 1481 1481 1480 1480 1480 1480 1480 1480 1480 1480 1480 1480 1479 1479 1479
1533 1524 1513 1511 1522 1522 1523 1513 1512 1513 1512 1512 1511 1507 1504 1504 1502 1500 1498 1496 1493 1491 1489 1487 1485 1484 1482 1481 1480 1479 1479 1478 1478 1478 1477 1477 1477 1477 1477 1477 1476 1476 1475 1475
1530 1524 1514 1518 1521 1522 1517 1509 1511 1511 1510 1510 1509 1507 1505 1502 1500 1498 1496 1493 1491 1489 1487 1485 1483 1482 1480 1479 1478 1477 1477 1476 1476 1475 1475 1475 1475 1474 1474 1473 1473 1472 1472 1472
1528 1523 1515 1519 1520 1518 1512 1512 1510 1510 1509 1508 1506 1504 1502 1500 1498 1496 1493 1491 1489 1486 1484 1483 1481 1480 1477 1476 1475 1475 1474 1473 1473 1473 1472 1472 1472 1471 1470 1470 1469 1469 1468 1468
1522 1516 1514 1514 1513 1512 1512 1511 1509 1508 1507 1505 1503 1501 1499 1497 1495 1493 1490 1488 1486 1483 1481 1480 1478 1477 1475 1474 1473 1472 1472 1471 1470 1470 1469 1469 1468 1467 1467 1467 1466 1466 1465 1465
1520 1512 1512 1512 1511 1510 1509 1508 1507 1506 1505 1503 1501 1499 1497 1495 1492 1490 1487 1485 1483 1480 1478 1476 1475 1474 1472 1471 1470 1470 1469 1468 1467 1466 1466 1466 1465 1465 1464 1464 1463 1463 1462 1462
1516 1511 1510 1508 1507 1507 1506 1505 1504 1503 1502 1500 1498 1496 1494 1492 1490 1487 1484 1482 1479 1477 1475 1473 1472 1471 1470 1469 1468 1467 1466 1465 1464 1464 1463 1462 1462 1462 1462 1461 1461 1460 1460 1459
1507 1506 1507 1505 1505 1504 1503 1502 1501 1500 1498 1497 1496 1493 1491 1489 1487 1484 1482 1479 1477 1475 1473 1471 1469 1468 1467 1466 1465 1464 1463 1462 1461 1461 1460 1460 1459 1459 1459 1459 1458 1458 1457 1457
1506 1504 1504 1503 1502 1502 1501 1500 1499 1498 1496 1494 1493 1491 1489 1486 1484 1482 1479 1476 1474 1472 1470 1468 1467 1466 1465 1463 1462 1461 1460 1459 1459 1458 1458 1457 1457 1456 1456 1456 1455 1455 1454 1454
1503 1503 1502 1501 1500 1499 1498 1497 1496 1495 1493 1492 1490 1488 1486 1484 1481 1479 1476 1474 1472 1470 1468 1466 1465 1463 1462 1461 1460 1459 1458 1457 1457 1456 1456 1455 1455 1454 1454 1453 1452 1452 1452 1451
1500 1500 1499 1498 1497 1497 1496 1495 1493 1492 1490 1489 1487 1485 1483 1481 1479 1476 1474 1472 1469 1467 1466 1464 1463 1461 1460 1459 1458 1457 1456 1455 1454 1454 1453 1453 1453 1452 1452 1451 1450 1450 1449 1449
1496 1496 1496 1495 1494 1493 1493 1492 1490 1489 1487 1486 1484 1482 1480 1478 1476 1474 1471 1469 1467 1465 1464 1462 1461 1460 1458 1457 1456 1455 1454 1453 1453 1452 1451 1451 1450 1450 1449 1449 1448 1448 1447 1447
1493 1493 1493 1492 1491 1490 1490 1489 1488 1486 1485 1483 1481 1479 1477 1475 1473 1471 1469 1467 1465 1463 1462 1460 1459 1458 1456 1455 1454 1453 1452 1451 1451 1450 1449 1449 1448 1447 1447 1446 1446 1446 1446 1445
1491 1491 1490 1490 1489 1488 1487 1486 1485 1483 1482 1480 1478 1477 1475 1472 1470 1468 1467 1465 1463 1461 1460 1458 1457 1456 1454 1453 1452 1452 1451 1450 1449 1448 1447 1447 1446 1445 1445 1444 1444 1444 1443 1443
1488 1488 1488 1487 1487 1486 1484 1483 1482 1481 1479 1477 1475 1473 1472 1470 1468 1466 1464 1462 1461 1459 1458 1456 1455 1453 1452 1451 1450 1449 1449 1448 1447 1446 1445 1445 1444 1443 1443 1442 1442 1441 1441 1440
1486 1486 1486 1485 1484 1483 1482 1481 1479 1478 1476 1474 1473 1471 1469 1467 1466 1464 1462 1460 1459 1457 1455 1454 1452 1451 1450 1449 1448 1447 1446 1446 1445 1444 1443 1443 1442 1441 1441 1440 1440 1439 1438 1437
1484 1484 1483 1482 1481 1480 1479 1478 1476 1475 1473 1472 1470 1468 1466 1465 1463 1461 1459 1457 1457 1455 1453 1452 1450 1449 1448 1447 1446 1445 1444 1443 1443 1442 1441 1441 1440 1439 1439 1438 1437 1436 1435 1435
1482 1482 1481 1480 1478 1477 1476 1475 1473 1472 1470 1469 1467 1465 1464 1462 1460 1458 1457 1456 1454 1452 1451 1449 1448 1447 1446 1445 1443 1443 1442 1441 1440 1440 1439 1438 1438 1437 1436 1435 1434 1434 1433 1432
1480 1479 1478 1477 1476 1474 1473 1472 1470 1469 1467 1466 1464 1463 1461 1459 1457 1456 1454 1453 1451 1450 1448 1447 1446 1445 1443 1442 1441 1440 1439 1438 1438 1437 1436 1435 1435 1434 1433 1433 1432 1431 1430 1429
1477 1476 1475 1474 1473 1471 1470 1468 1467 1466 1464 1463 1461 1460 1458 1456 1454 1453 1451 1450 1449 1447 1446 1444 1443 1442 1441 1440 1439 1438 1437 1436 1435 1434 1433 1433 1432 1431 1430 1429 1428 1428 1427 1426
1474 1473 1472 1471 1469 1468 1467 1465 1464 1462 1461 1459 1458 1457 1455 1453 1452 1450 1448 1447 1446 1444 1443 1442 1441 1439 1438 1437 1436 1435 1434 1433 1432 1431 1430 1429 1428 1428 1427 1426 1425 1424 1423 1422
1471 1470 1469 1468 1467 1465 1464 1462 1460 1459 1457 1456 1455 1453 1452 1450 1448 1447 1445 1444 1443 1441 1440 1439 1438 1436 1435 1434 1433 1432 1431 1430 1429 1428 1427 1426 1425 1424 1423 1422 1421 1420 1419 1418
1468 1467 1466 1465 1463 1462 1460 1459 1457 1456 1454 1453 1451 1450 1448 1447 1445 1444 1442 1441 1439 1438 1437 1436 1434 1433 1432 1431 1430 1429 1428 1427 1426 1424 1423 1422 1421 1420 1419 1418 1417 1416 1415 1414